�������l�o���
Date,Time,MP-1(��Sv/h),MP-2(��Sv/h),MP-3(��Sv/h),MP-4(��Sv/h),MP-5(��Sv/h),MP-6(��Sv/h),MP-7(��Sv/h),MP-8(��Sv/h),����,����(m/s),���J
2018/10/29,00:00,0.776,1.166,0.825,1.459,1.058,0.460,0.804,0.760,���k��,1.7,��
2018/10/29,00:10,0.776,1.166,0.824,1.459,1.057,0.459,0.805,0.761,���k��,1.1,��
2018/10/29,00:20,0.775,1.167,0.822,1.459,1.058,0.460,0.802,0.760,��,1.1,��
2018/10/29,00:30,0.775,1.168,0.824,1.459,1.057,0.459,0.804,0.761,��,0.9,��
2018/10/29,00:40,0.775,1.165,0.823,1.457,1.056,0.459,0.804,0.762,�쐼,1.2,��
2018/10/29,00:50,0.773,1.166,0.823,1.460,1.060,0.458,0.804,0.762,�쐼,1.2,��
2018/10/29,01:00,0.776,1.166,0.823,1.461,1.057,0.459,0.803,0.761,��쐼,1.1,��
2018/10/29,01:10,0.776,1.167,0.820,1.457,1.059,0.460,0.803,0.761,�쐼,0.6,��
2018/10/29,01:20,0.775,1.167,0.822,1.458,1.059,0.461,0.804,0.760,-,CALM,��
2018/10/29,01:30,0.774,1.167,0.823,1.460,1.060,0.459,0.803,0.760,-,CALM,��
2018/10/29,01:40,0.775,1.167,0.822,1.461,1.056,0.461,0.804,0.759,��,1.1,��
2018/10/29,01:50,0.775,1.165,0.822,1.458,1.058,0.459,0.805,0.761,�쐼,1.1,��
2018/10/29,02:00,0.775,1.165,0.823,1.459,1.056,0.459,0.803,0.763,���쐼,1.1,��
2018/10/29,02:10,0.775,1.167,0.823,1.460,1.057,0.461,0.802,0.758,�쐼,0.9,��
2018/10/29,02:20,0.774,1.165,0.824,1.460,1.057,0.460,0.804,0.761,��,0.8,��
2018/10/29,02:30,0.774,1.167,0.823,1.458,1.060,0.459,0.803,0.761,��,0.9,��
2018/10/29,02:40,0.776,1.164,0.823,1.460,1.057,0.459,0.803,0.758,���k��,1.1,��
2018/10/29,02:50,0.776,1.166,0.824,1.459,1.058,0.459,0.804,0.761,��,1.5,��
2018/10/29,03:00,0.776,1.168,0.822,1.459,1.057,0.458,0.805,0.761,��,0.9,��
2018/10/29,03:10,0.774,1.166,0.823,1.461,1.057,0.460,0.806,0.760,��,0.6,��
2018/10/29,03:20,0.775,1.168,0.823,1.461,1.058,0.457,0.803,0.760,���k��,0.6,��
2018/10/29,03:30,0.774,1.167,0.823,1.459,1.057,0.459,0.804,0.761,���쐼,0.6,��
2018/10/29,03:40,0.774,1.167,0.824,1.460,1.058,0.460,0.803,0.762,�쐼,0.8,��
2018/10/29,03:50,0.775,1.167,0.823,1.457,1.058,0.460,0.803,0.761,��,0.9,��
2018/10/29,04:00,0.774,1.168,0.821,1.458,1.060,0.458,0.802,0.760,��쐼,0.9,��
2018/10/29,04:10,0.774,1.165,0.823,1.457,1.056,0.461,0.804,0.761,��,0.8,��
2018/10/29,04:20,0.777,1.166,0.824,1.457,1.058,0.459,0.805,0.761,��,1.4,��
2018/10/29,04:30,0.774,1.167,0.823,1.460,1.059,0.459,0.803,0.762,���쐼,1.5,��
2018/10/29,04:40,0.773,1.166,0.825,1.459,1.058,0.460,0.804,0.761,��,1.5,��
2018/10/29,04:50,0.774,1.167,0.823,1.459,1.056,0.459,0.804,0.761,��,1.5,��
2018/10/29,05:00,0.775,1.167,0.821,1.459,1.054,0.460,0.806,0.762,��,1.7,��
2018/10/29,05:10,0.775,1.164,0.822,1.461,1.057,0.459,0.803,0.762,��,2.0,��
2018/10/29,05:20,0.774,1.164,0.823,1.461,1.059,0.459,0.804,0.763,��,1.9,��
2018/10/29,05:30,0.775,1.165,0.823,1.459,1.058,0.459,0.805,0.761,��,2.0,��
2018/10/29,05:40,0.774,1.166,0.822,1.458,1.059,0.460,0.804,0.761,���쐼,1.7,��
2018/10/29,05:50,0.776,1.165,0.822,1.459,1.057,0.461,0.805,0.762,���쐼,1.7,��
2018/10/29,06:00,0.777,1.164,0.822,1.458,1.057,0.459,0.802,0.762,���쐼,2.3,��
2018/10/29,06:10,0.773,1.164,0.822,1.461,1.058,0.461,0.803,0.760,�쐼,2.0,��
2018/10/29,06:20,0.774,1.167,0.822,1.460,1.057,0.460,0.804,0.762,�쐼,2.3,��
2018/10/29,06:30,0.773,1.164,0.821,1.461,1.058,0.459,0.803,0.761,��쐼,3.2,��
2018/10/29,06:40,0.776,1.163,0.823,1.460,1.057,0.460,0.805,0.762,��쐼,4.0,��
2018/10/29,06:50,0.775,1.164,0.822,1.458,1.054,0.460,0.805,0.760,��쐼,3.8,��
2018/10/29,07:00,0.776,1.168,0.824,1.459,1.057,0.459,0.804,0.762,�쐼,4.3,��
2018/10/29,07:10,0.774,1.163,0.821,1.457,1.056,0.459,0.805,0.761,���쐼,3.4,��
2018/10/29,07:20,0.774,1.166,0.823,1.458,1.054,0.460,0.804,0.761,���쐼,5.0,��
2018/10/29,07:30,0.773,1.163,0.819,1.459,1.057,0.460,0.804,0.759,�쐼,4.9,��
2018/10/29,07:40,0.775,1.165,0.823,1.462,1.058,0.459,0.806,0.763,��쐼,1.7,��
2018/10/29,07:50,0.775,1.166,0.821,1.462,1.058,0.460,0.806,0.763,-,CALM,��
2018/10/29,08:00,0.776,1.164,0.820,1.460,1.058,0.460,0.806,0.762,���k��,0.9,��
2018/10/29,08:10,0.778,1.169,0.823,1.459,1.059,0.460,0.808,0.763,��,1.2,��
2018/10/29,08:20,0.777,1.167,0.822,1.461,1.059,0.461,0.806,0.762,��,1.2,��
2018/10/29,08:30,0.777,1.167,0.823,1.457,1.061,0.460,0.806,0.762,��,1.7,��
2018/10/29,08:40,0.779,1.164,0.820,1.459,1.058,0.460,0.805,0.763,��쐼,1.9,��
2018/10/29,08:50,0.778,1.163,0.822,1.459,1.059,0.460,0.803,0.762,��,2.3,��
2018/10/29,09:00,0.776,1.162,0.824,1.459,1.061,0.461,0.805,0.762,��쓌,2.2,��
2018/10/29,09:10,0.776,1.165,0.822,1.459,1.062,0.462,0.804,0.761,�쓌,2.9,��
2018/10/29,09:20,0.775,1.164,0.822,1.460,1.058,0.461,0.806,0.762,��쓌,2.6,��
2018/10/29,09:30,0.773,1.163,0.823,1.458,1.055,0.461,0.805,0.763,��,1.5,��
2018/10/29,09:40,0.778,1.162,0.824,1.461,1.058,0.459,0.805,0.764,���쐼,4.2,��
2018/10/29,09:50,0.776,1.161,0.824,1.460,1.057,0.460,0.805,0.763,�쐼,5.8,��
2018/10/29,10:00,0.777,1.163,0.821,1.460,1.059,0.461,0.805,0.763,���쐼,5.3,��
2018/10/29,10:10,0.778,1.163,0.823,1.462,1.061,0.464,0.805,0.762,���쐼,4.8,��
2018/10/29,10:20,0.779,1.164,0.821,1.464,1.060,0.456,0.806,0.762,���쐼,5.3,��
2018/10/29,10:30,0.778,1.164,0.824,1.461,1.063,0.458,0.808,0.762,���쐼,5.2,��
2018/10/29,10:40,0.779,1.165,0.822,1.461,1.060,0.461,0.807,0.761,��,5.3,��
2018/10/29,10:50,0.778,1.165,0.823,1.464,1.063,0.460,0.806,0.760,��,4.3,��
2018/10/29,11:00,0.778,1.168,0.822,1.461,1.062,0.461,0.806,0.761,��,1.7,��
2018/10/29,11:10,0.779,1.167,0.824,1.464,1.063,0.460,0.808,0.761,�k,2.3,��
2018/10/29,11:20,0.778,1.171,0.825,1.464,1.064,0.461,0.805,0.762,�k�k��,3.0,��
2018/10/29,11:30,0.780,1.168,0.827,1.465,1.063,0.461,0.807,0.761,�k�k��,3.6,��
2018/10/29,11:40,0.778,1.171,0.825,1.465,1.063,0.461,0.808,0.761,�k��,6.8,��
2018/10/29,11:50,0.777,1.170,0.823,1.465,1.065,0.460,0.807,0.760,�k��,7.7,��
2018/10/29,12:00,0.779,1.168,0.825,1.465,1.066,0.459,0.804,0.762,�k��,7.4,��
2018/10/29,12:10,0.778,1.171,0.826,1.463,1.063,0.461,0.806,0.761,�k��,10.2,��
2018/10/29,12:20,0.778,1.168,0.826,1.465,1.064,0.459,0.807,0.762,�k��,6.1,��
2018/10/29,12:30,0.780,1.170,0.826,1.464,1.065,0.461,0.806,0.760,���k��,5.3,��
2018/10/29,12:40,0.778,1.170,0.827,1.466,1.064,0.459,0.807,0.760,�k��,7.4,��
2018/10/29,12:50,0.779,1.171,0.827,1.466,1.066,0.459,0.807,0.761,���k��,9.2,��
2018/10/29,13:00,0.780,1.171,0.825,1.465,1.067,0.459,0.806,0.762,���k��,8.5,��
2018/10/29,13:10,0.779,1.167,0.826,1.466,1.064,0.460,0.806,0.761,���k��,7.8,��
2018/10/29,13:20,0.778,1.168,0.826,1.466,1.065,0.460,0.807,0.761,�k��,7.1,��
2018/10/29,13:30,0.779,1.171,0.826,1.468,1.065,0.460,0.808,0.762,���k��,4.9,��
2018/10/29,13:40,0.779,1.170,0.828,1.469,1.067,0.459,0.807,0.760,���k��,5.3,��
2018/10/29,13:50,0.778,1.169,0.828,1.466,1.067,0.459,0.807,0.759,�k��,4.9,��
2018/10/29,14:00,0.781,1.171,0.825,1.466,1.066,0.461,0.808,0.761,�k�k��,6.6,��
2018/10/29,14:10,0.779,1.168,0.828,1.467,1.066,0.461,0.806,0.760,�k�k��,8.1,��
2018/10/29,14:20,0.781,1.169,0.827,1.467,1.065,0.461,0.807,0.762,�k�k��,6.7,��
2018/10/29,14:30,0.778,1.170,0.825,1.468,1.064,0.459,0.807,0.763,���k��,7.2,��
2018/10/29,14:40,0.779,1.171,0.828,1.469,1.065,0.460,0.806,0.762,���k��,6.0,��
2018/10/29,14:50,0.778,1.171,0.826,1.470,1.065,0.461,0.806,0.760,�k��,5.7,��
2018/10/29,15:00,0.780,1.173,0.827,1.469,1.066,0.461,0.806,0.761,�k��,4.1,��
2018/10/29,15:10,0.781,1.175,0.830,1.470,1.068,0.461,0.806,0.761,�k��,3.8,��
2018/10/29,15:20,0.781,1.175,0.831,1.470,1.065,0.460,0.805,0.762,�k��,4.4,��
2018/10/29,15:30,0.781,1.175,0.826,1.470,1.066,0.459,0.807,0.760,�k��,5.1,��
2018/10/29,15:40,0.779,1.175,0.826,1.468,1.066,0.459,0.806,0.763,�k�k��,4.3,��
2018/10/29,15:50,0.778,1.175,0.827,1.470,1.065,0.460,0.807,0.762,�k,4.4,��
2018/10/29,16:00,0.778,1.178,0.827,1.469,1.065,0.460,0.807,0.763,�k,5.4,��
2018/10/29,16:10,0.779,1.176,0.825,1.468,1.064,0.461,0.804,0.765,�k,5.1,��
2018/10/29,16:20,0.776,1.178,0.827,1.468,1.066,0.461,0.806,0.763,�k,4.5,��
2018/10/29,16:30,0.779,1.181,0.827,1.469,1.066,0.461,0.806,0.763,�k,3.3,��
2018/10/29,16:40,0.779,1.179,0.827,1.468,1.067,0.460,0.806,0.764,�k,3.9,��
2018/10/29,16:50,0.781,1.180,0.829,1.466,1.066,0.462,0.805,0.764,�k�k��,5.0,��
2018/10/29,17:00,0.780,1.179,0.830,1.469,1.068,0.459,0.805,0.765,�k,5.5,��
2018/10/29,17:10,0.781,1.179,0.830,1.470,1.067,0.461,0.809,0.766,�k,5.7,��
2018/10/29,17:20,0.781,1.179,0.830,1.470,1.066,0.460,0.806,0.762,�k�k��,5.1,��
2018/10/29,17:30,0.780,1.180,0.827,1.469,1.066,0.460,0.806,0.763,�k�k��,4.4,��
2018/10/29,17:40,0.781,1.177,0.829,1.469,1.070,0.459,0.808,0.763,�k�k��,3.8,��
2018/10/29,17:50,0.781,1.179,0.828,1.469,1.069,0.461,0.809,0.764,�k��,3.9,��
2018/10/29,18:00,0.780,1.179,0.828,1.470,1.068,0.459,0.808,0.764,�k��,3.9,��
2018/10/29,18:10,0.781,1.176,0.828,1.469,1.068,0.461,0.807,0.764,�k��,2.9,��
2018/10/29,18:20,0.779,1.178,0.828,1.471,1.069,0.460,0.806,0.762,�k��,2.3,��
2018/10/29,18:30,0.779,1.179,0.830,1.470,1.067,0.460,0.808,0.764,�k��,2.2,��
2018/10/29,18:40,0.780,1.179,0.826,1.472,1.072,0.459,0.809,0.764,���k��,2.3,��
2018/10/29,18:50,0.782,1.178,0.829,1.469,1.069,0.461,0.806,0.764,���k��,2.9,��
2018/10/29,19:00,0.780,1.179,0.828,1.470,1.067,0.460,0.808,0.764,���k��,4.3,��
2018/10/29,19:10,0.781,1.179,0.829,1.471,1.067,0.461,0.807,0.765,���k��,5.4,��
2018/10/29,19:20,0.781,1.177,0.828,1.469,1.069,0.459,0.807,0.764,�k��,5.6,��
2018/10/29,19:30,0.781,1.179,0.827,1.473,1.067,0.459,0.809,0.763,�k��,3.8,��
2018/10/29,19:40,0.781,1.178,0.827,1.470,1.068,0.460,0.806,0.764,�k��,3.0,��
2018/10/29,19:50,0.779,1.177,0.829,1.471,1.069,0.460,0.808,0.765,�k�k��,1.9,��
2018/10/29,20:00,0.780,1.182,0.829,1.469,1.067,0.459,0.806,0.763,�k�k��,2.3,��
2018/10/29,20:10,0.780,1.181,0.829,1.472,1.068,0.460,0.806,0.763,�k�k��,2.6,��
2018/10/29,20:20,0.780,1.180,0.831,1.468,1.066,0.459,0.807,0.762,�k,3.0,��
2018/10/29,20:30,0.783,1.177,0.829,1.470,1.069,0.460,0.808,0.764,�k,3.3,��
2018/10/29,20:40,0.779,1.178,0.828,1.469,1.066,0.459,0.806,0.763,�k��,3.8,��
2018/10/29,20:50,0.780,1.178,0.830,1.470,1.068,0.460,0.805,0.764,�k��,4.3,��
2018/10/29,21:00,0.781,1.179,0.829,1.469,1.068,0.461,0.807,0.764,�k��,3.6,��
2018/10/29,21:10,0.782,1.178,0.829,1.469,1.067,0.458,0.806,0.762,�k��,3.3,��
2018/10/29,21:20,0.781,1.178,0.829,1.471,1.067,0.459,0.807,0.763,�k�k��,2.6,��
2018/10/29,21:30,0.780,1.178,0.829,1.471,1.068,0.459,0.808,0.763,�k�k��,2.6,��
2018/10/29,21:40,0.779,1.179,0.828,1.470,1.069,0.458,0.804,0.761,�k�k��,2.3,��
2018/10/29,21:50,0.779,1.178,0.829,1.470,1.067,0.458,0.806,0.764,�k�k��,2.3,��
2018/10/29,22:00,0.779,1.176,0.829,1.471,1.066,0.459,0.807,0.763,�k�k��,2.2,��
2018/10/29,22:10,0.780,1.178,0.831,1.469,1.067,0.461,0.806,0.763,�k�k��,1.9,��
2018/10/29,22:20,0.780,1.179,0.828,1.472,1.070,0.459,0.807,0.762,�k�k��,1.2,��
2018/10/29,22:30,0.780,1.176,0.828,1.470,1.069,0.459,0.807,0.763,�k��,0.9,��
2018/10/29,22:40,0.781,1.176,0.829,1.472,1.068,0.459,0.807,0.764,���쓌,0.6,��
2018/10/29,22:50,0.781,1.179,0.829,1.470,1.070,0.459,0.807,0.764,��,0.6,��
2018/10/29,23:00,0.780,1.180,0.829,1.472,1.069,0.460,0.807,0.764,���쐼,1.5,�L
2018/10/29,23:10,0.779,1.177,0.828,1.472,1.068,0.460,0.808,0.763,��쐼,2.0,��
2018/10/29,23:20,0.779,1.179,0.828,1.472,1.069,0.459,0.806,0.763,�쐼,2.3,��
2018/10/29,23:30,0.781,1.177,0.828,1.470,1.069,0.461,0.807,0.763,���쐼,3.7,��
2018/10/29,23:40,0.781,1.178,0.830,1.471,1.069,0.459,0.807,0.764,���쐼,4.0,��
2018/10/29,23:50,0.781,1.178,0.827,1.470,1.068,0.461,0.805,0.763,�쐼,2.9,��
